Tracking 30264 objects as of 15-Feb-2025
HD Live streaming from Space Station
objects crossing your sky now

STARLINK-4063

Track STARLINK-4063 now!
10-day predictions
STARLINK-4063 is classified as:


NORAD ID: 53132
Int'l Code: 2022-083A
Perigee: 545.9 km
Apogee: 547.8 km
Inclination: 53.2 °
Period: 95.4 minutes
Semi major axis: 6917 km
RCS: Unknown
Launch date: July 17, 2022
Source: United States (US)
Launch site: AIR FORCE EASTERN TEST RANGE (AFETR)
Your satellite tracking list
Your tracking list is empty




NASA's NSSDC Master Catalog

Two Line Element Set (TLE):
1 53132U 22083A   25046.49409234 -.00000415  00000-0 -79861-5 0  9999
2 53132  53.2164 112.3083 0001384  90.8101 269.3050 15.08841531142761
Source of the keplerian elements: AFSPC